Back to catalog

STARLINK-35373

AliveCommunicationsSSO
NORAD 65792·PAYLOAD·🇺🇸 United States

Launched Sep 26, 2025 from Vandenberg Space Force Base

Loading…

Next Passes (next 24 hours)

TLE

FreshSource: CelesTrak SupGP

Epoch: Sep 14, 2026, 15:48 UTC

1 65792C 25218B   26257.65881944 -.00036886  00000+0 -11449-2 0  2574
2 65792  97.2843 115.1466 0002047  99.1468 150.7110 15.33460228    18

Track STARLINK-35373 in real time with AllMySat

Download on the App Store